[Iaude] MPEC P55: 2024 PP [a=2.19,e=0.48,i=7.0,H=23.4]

mpec at cfa.harvard.edu mpec at cfa.harvard.edu
Sat Aug 3 21:53:26 EDT 2024


M.P.E.C. 2024-P55                                Issued 2024 August 4, 01:52 UT

     The Minor Planet Electronic Circulars contain information on unusual
         minor planets, routine data on comets and natural satellites,
         and occasional editorial announcements.  They are published
    on behalf of Division F of the International Astronomical Union by the
          Minor Planet Center, Smithsonian Astrophysical Observatory,
                          Cambridge, MA 02138, U.S.A.
			  
             Prepared using the Tamkin Foundation Computer Network

                              MPC at CFA.HARVARD.EDU
            URL https://www.minorplanetcenter.net/    ISSN 1523-6714

                                    2024 PP                                     


Observations:
     K24P00P  C2024 07 06.42571019 50 25.100-24 35 59.67         22.25GVEP055F52
     K24P00P  C2024 07 06.43160519 50 25.427-24 36 08.78         22.13GVEP055F52
     K24P00P  C2024 07 06.43750619 50 25.756-24 36 17.93         21.84GVEP055F52
     K24P00P  C2024 07 06.44340919 50 26.086-24 36 26.65         21.56GVEP055F52
     K24P00P  C2024 07 06.51967619 50 30.302-24 38 21.59         21.98GVEP055F51
     K24P00P* C2024 08 01.39069820 39 17.892-39 54 08.31         21.00wXEP055F51
     K24P00P  C2024 08 01.40045820 39 19.500-39 54 33.21         21.52wXEP055F51
     K24P00P  C2024 08 01.41022320 39 21.083-39 54 57.73         21.00wXEP055F51
     K24P00P  C2024 08 01.42000320 39 22.702-39 55 22.33         21.05wXEP055F51
     K24P00P KC2024 08 02.46013220 42 43.378-40 37 54.84         20.8 GVEP055474
     K24P00P KC2024 08 02.46375220 42 44.016-40 38 04.24         20.5 GVEP055474
     K24P00P KC2024 08 02.46737220 42 44.686-40 38 13.24         20.7 GVEP055474
     K24P00P KC2024 08 02.47099120 42 45.350-40 38 22.45         20.7 GVEP055474
     K24P00P 1C2024 08 03.41549920 45 54.437-41 18 13.50         20.91GVEP055T12
     K24P00P 1C2024 08 03.41946920 45 55.153-41 18 23.09         20.70GVEP055T12
     K24P00P 1C2024 08 03.42380920 45 55.937-41 18 33.85         20.70GVEP055T12

Observer details:
474 Mount John Observatory, Lake Tekapo.  Observers A. C. Gilmore, P. M.
    Kilmartin.  Measurer P. M. Kilmartin.  0.6-m f/6.3 Reflector + CCD.
F51 Pan-STARRS 1, Haleakala.  Observers J. Herman, T. Lowe, P. Minguez, A.
    Schultz, I. Smith.  Measurers K. Chambers, T. de Boer, J. Fairlamb, H.
    Gao, M. Huber, C.-C. Lin, E. Magnier, Y. Ramanjooloo, R. Wainscoat, R.
    Weryk.  1.8-m Ritchey-Chretien + CCD.
F52 Pan-STARRS 2, Haleakala.  Observers J. Herman, T. Lowe, P. Minguez, A.
    Schultz, I. Smith.  Measurers K. Chambers, T. de Boer, J. Fairlamb, H.
    Gao, M. Huber, C.-C. Lin, E. Magnier, Y. Ramanjooloo, R. Wainscoat, R.
    Weryk.  1.8-m Ritchey-Chretien + CCD.
T12 University of Hawaii 88-inch telescope, Maunakea.  Observer Y.
    Ramanjooloo.  Measurers R. Weryk, Y. Ramanjooloo, J. Fairlamb, R.
    Wainscoat.  2.24-m f/10.1 reflector + CCD.

Orbital elements:
2024 PP                                                  Earth MOID = 0.1675 AU
Epoch 2024 Oct. 17.0 TT = JDT 2460600.5                 Veres                   
M  13.40490              (2000.0)            P               Q                  
n   0.30310869     Peri.  238.80159     +0.92852992     +0.35140899             
a   2.1948447      Node   100.39270     -0.28551310     +0.88210476             
e   0.4802423      Incl.    6.99390     -0.23730666     +0.31369240             
P   3.25           H   23.45          G   0.15           U   7                  
Residuals in seconds of arc
240706 F52  0.0   0.1+    240801 F51  0.1+  0.1-    240802 474  0.0   0.2+
240706 F52  0.0   0.0     240801 F51  0.2-  0.1+    240803 T12  0.0   0.3-
240706 F52  0.0   0.2-    240801 F51  0.1-  0.1+    240803 T12  0.0   0.0
240706 F52  0.0   0.1+    240802 474  0.2-  0.2+    240803 T12  0.0   0.1+
240706 F51  0.0   0.0     240802 474  0.4-  0.1+
240801 F51  0.1+  0.0     240802 474  0.1-  0.3+

Ephemeris:
2024 PP                  a,e,i = 2.19, 0.48, 7                   q = 1.1408
Date    TT    R. A. (2000) Decl.     Delta      r    Elong.  Phase     V
2024 07 05    19 48 48.9 -24 00 41   0.3008  1.3125   168.1     9.2    22.0
...
2024 07 20    20 09 34.2 -31 37 12   0.2297  1.2422   168.7     9.2    21.3
...
2024 07 28    20 26 49.9 -36 50 56   0.2036  1.2108   162.1    14.9    21.2
...
2024 08 03    20 44 29.5 -41 00 20   0.1892  1.1906   156.4    19.9    21.2
2024 08 04    20 47 55.3 -41 41 34   0.1872  1.1875   155.5    20.8    21.2
2024 08 05    20 51 30.4 -42 22 25   0.1854  1.1845   154.5    21.6    21.2
...
2024 08 11    21 16 25.2 -46 12 25   0.1766  1.1685   149.0    26.5    21.2
...
2024 08 19    21 58 37.8 -50 04 00   0.1708  1.1526   142.7    32.1    21.3
...
2024 09 03    23 28 12.5 -51 06 40   0.1752  1.1408   135.7    38.1    21.5

M. P. C. Staff               (C) Copyright 2024 MPC           M.P.E.C. 2024-P55





More information about the Iaude mailing list